This is the latest recevied weather packets stored in our database for station/object DM1RG-6. If no packets are shown the sender has not sent any weather packets the latest 10 day(s).
| Time | Temp. | Humidity | Pressure | Rain* | Wind** | Luminosity | Snow |
|---|---|---|---|---|---|---|---|
| 1777713483 | 22.22° C | 38% | 1021.7 hPa | 0 mm | - | - | - |
| 1777713123 | 22.78° C | 38% | 1021.9 hPa | 0 mm | - | - | - |
| 1777712763 | 23.33° C | 38% | 1021.8 hPa | 0 mm | - | - | - |
| 1777712403 | 22.78° C | 40% | 1022.1 hPa | 0 mm | - | - | - |
| 1777712044 | 22.22° C | 41% | 1022 hPa | 0 mm | - | - | - |
| 1777711683 | 21.67° C | 42% | 1022.1 hPa | 0 mm | - | - | - |
| 1777711324 | 22.22° C | 42% | 1022.3 hPa | 0 mm | - | - | - |
| 1777710963 | 21.11° C | 42% | 1022.2 hPa | 0 mm | - | - | - |
| 1777710604 | 21.11° C | 43% | 1022.3 hPa | 0 mm | - | - | - |
| 1777710243 | 21.67° C | 44% | 1022.4 hPa | 0 mm | - | - | - |
| 1777709883 | 21.67° C | 44% | 1022.5 hPa | 0 mm | - | - | - |
| 1777709523 | 21.67° C | 45% | 1022.4 hPa | 0 mm | - | - | - |
| 1777709163 | 21.11° C | 46% | 1022.4 hPa | 0 mm | - | - | - |
| 1777708804 | 20.56° C | 46% | 1022.4 hPa | 0 mm | - | - | - |
| 1777708443 | 20° C | 47% | 1022.5 hPa | 0 mm | - | - | - |
| 1777708083 | 20.56° C | 48% | 1022.6 hPa | 0 mm | - | - | - |
| 1777707724 | 19.44° C | 48% | 1022.5 hPa | 0 mm | - | - | - |
| 1777707363 | 19.44° C | 48% | 1022.6 hPa | 0 mm | - | - | - |
| 1777707003 | 19.44° C | 49% | 1022.5 hPa | 0 mm | - | - | - |
| 1777706643 | 18.89° C | 49% | 1022.7 hPa | 0 mm | - | - | - |
| 1777706284 | 18.89° C | 48% | 1022.6 hPa | 0 mm | - | - | - |
| 1777705924 | 18.89° C | 48% | 1022.7 hPa | 0 mm | - | - | - |
| 1777705563 | 18.89° C | 50% | 1022.7 hPa | 0 mm | - | - | - |
| 1777705203 | 18.33° C | 51% | 1022.7 hPa | 0 mm | - | - | - |
| 1777704843 | 17.78° C | 52% | 1022.8 hPa | 0 mm | - | - | - |
* Rain latest hour (hover to see other rain measurements)
** Current wind speed in m/s (hover to see current wind gust speed)